QFA761 YSSY-YPAD

Flight info

Callsign QFA761
Flight time N/A
Altitude 36000
Route TESAT A576 KADOM H44 MAXEM Q60 KAKLU H309 AD
Aircraft B38M/M-SDE1FGHILORVWXY/HB1

Departure

Time 2026-04-25 02:39
Airport Sydney Kingsford Smith International Airport (YSSY)

Arrival

Time N/A
Airport Adelaide International Airport (YPAD)
Time Latitude Longitude Altitude Speed Heading
2026-04-25 01:47 -33.93128 151.17756 29 ft 0 kts 191°
2026-04-25 02:25 -33.93126 151.17757 30 ft 1 kts 191°
2026-04-25 02:25 -33.93122 151.17758 30 ft 1 kts 191°
2026-04-25 02:25 -33.93115 151.17759 30 ft 1 kts 191°
2026-04-25 02:26 -33.93105 151.17762 30 ft 2 kts 199°
2026-04-25 02:26 -33.93094 151.17770 30 ft 2 kts 224°
2026-04-25 02:26 -33.93084 151.17782 30 ft 2 kts 224°
2026-04-25 02:26 -33.93075 151.17793 30 ft 2 kts 225°
2026-04-25 02:27 -33.93065 151.17805 30 ft 1 kts 259°
2026-04-25 02:27 -33.93064 151.17811 30 ft 0 kts 276°
2026-04-25 02:27 -33.93064 151.17812 30 ft 0 kts 277°
2026-04-25 02:31 -33.93064 151.17805 29 ft 3 kts 278°
2026-04-25 02:31 -33.93057 151.17768 29 ft 6 kts 284°
2026-04-25 02:31 -33.93034 151.17706 29 ft 10 kts 298°
2026-04-25 02:31 -33.93009 151.17616 29 ft 13 kts 282°
2026-04-25 02:32 -33.93060 151.17531 29 ft 15 kts 204°
2026-04-25 02:32 -33.93171 151.17538 29 ft 18 kts 167°
2026-04-25 02:32 -33.93302 151.17572 28 ft 20 kts 168°
2026-04-25 02:32 -33.93448 151.17589 29 ft 21 kts 188°
2026-04-25 02:33 -33.93595 151.17614 29 ft 22 kts 167°
2026-04-25 02:33 -33.93714 151.17711 28 ft 21 kts 121°
2026-04-25 02:33 -33.93835 151.17767 29 ft 20 kts 178°
2026-04-25 02:33 -33.93974 151.17800 28 ft 21 kts 168°
2026-04-25 02:34 -33.94116 151.17836 28 ft 21 kts 168°
2026-04-25 02:34 -33.94255 151.17871 29 ft 21 kts 167°
2026-04-25 02:34 -33.94397 151.17907 29 ft 21 kts 170°
2026-04-25 02:34 -33.94541 151.17887 29 ft 21 kts 174°
2026-04-25 02:35 -33.94686 151.17924 29 ft 21 kts 167°
2026-04-25 02:35 -33.94832 151.17962 29 ft 22 kts 168°
2026-04-25 02:35 -33.94980 151.18001 30 ft 22 kts 167°
2026-04-25 02:35 -33.95124 151.18041 30 ft 17 kts 167°
2026-04-25 02:36 -33.95200 151.17964 30 ft 16 kts 257°
2026-04-25 02:36 -33.95211 151.17903 29 ft 0 kts 257°
2026-04-25 02:38 -33.95212 151.17898 29 ft 2 kts 257°
2026-04-25 02:38 -33.95218 151.17863 29 ft 8 kts 257°
2026-04-25 02:38 -33.95227 151.17785 29 ft 11 kts 288°
2026-04-25 02:38 -33.95035 151.17704 27 ft 58 kts 350°
2026-04-25 02:39 -33.94466 151.17554 29 ft 109 kts 348°
2026-04-25 02:39 -33.93566 151.17320 32 ft 154 kts 348°
2026-04-25 02:39 -33.92478 151.17055 482 ft 161 kts 349°
2026-04-25 02:39 -33.91362 151.16742 1069 ft 169 kts 338°
2026-04-25 02:40 -33.90568 151.15678 1519 ft 183 kts 290°
2026-04-25 02:40 -33.90237 151.14192 2071 ft 185 kts 285°
2026-04-25 02:40 -33.89879 151.12644 2345 ft 199 kts 292°
2026-04-25 02:40 -33.89243 151.11097 2632 ft 213 kts 298°
2026-04-25 02:41 -33.88517 151.09469 2908 ft 230 kts 300°
2026-04-25 02:41 -33.87740 151.07742 3267 ft 244 kts 300°
2026-04-25 02:41 -33.86907 151.05869 3655 ft 257 kts 299°
2026-04-25 02:41 -33.86053 151.03921 4073 ft 268 kts 298°
2026-04-25 02:42 -33.85180 151.01921 4631 ft 272 kts 298°
2026-04-25 02:42 -33.84538 150.99810 5238 ft 274 kts 286°
2026-04-25 02:42 -33.84082 150.97580 5892 ft 275 kts 283°
2026-04-25 02:42 -33.83687 150.95311 6521 ft 278 kts 282°
2026-04-25 02:43 -33.83287 150.93024 7131 ft 281 kts 283°
2026-04-25 02:43 -33.82858 150.90713 7740 ft 285 kts 283°
2026-04-25 02:43 -33.82407 150.88375 8394 ft 288 kts 283°
2026-04-25 02:43 -33.81949 150.86020 9059 ft 291 kts 283°
2026-04-25 02:44 -33.81489 150.83640 9719 ft 294 kts 283°
2026-04-25 02:44 -33.81024 150.81224 10350 ft 300 kts 283°
2026-04-25 02:44 -33.80550 150.78744 10869 ft 309 kts 282°
2026-04-25 02:44 -33.80058 150.76174 11219 ft 323 kts 282°
2026-04-25 02:45 -33.79542 150.73489 11558 ft 337 kts 282°
2026-04-25 02:45 -33.79005 150.70694 11883 ft 350 kts 282°
2026-04-25 02:45 -33.78447 150.67806 12419 ft 357 kts 282°
2026-04-25 02:45 -33.77881 150.64884 13081 ft 359 kts 282°
2026-04-25 02:46 -33.77314 150.61949 13720 ft 362 kts 282°
2026-04-25 02:46 -33.76743 150.58987 14333 ft 366 kts 282°
2026-04-25 02:46 -33.76168 150.56002 14966 ft 369 kts 282°
2026-04-25 02:46 -33.75583 150.52988 15602 ft 371 kts 282°
2026-04-25 02:47 -33.74990 150.49945 16181 ft 375 kts 282°
2026-04-25 02:47 -33.74392 150.46878 16769 ft 379 kts 282°
2026-04-25 02:47 -33.73787 150.43780 17384 ft 382 kts 282°
2026-04-25 02:47 -33.73177 150.40662 17988 ft 385 kts 282°
2026-04-25 02:48 -33.72560 150.37513 18570 ft 389 kts 282°
2026-04-25 02:48 -33.71938 150.34341 19109 ft 392 kts 282°
2026-04-25 02:48 -33.71379 150.31118 19621 ft 395 kts 276°
2026-04-25 02:48 -33.71291 150.27821 20120 ft 397 kts 264°
2026-04-25 02:49 -33.71538 150.24561 20624 ft 399 kts 262°
2026-04-25 02:49 -33.71826 150.21232 21068 ft 402 kts 262°
2026-04-25 02:49 -33.72134 150.17880 21503 ft 405 kts 262°
2026-04-25 02:49 -33.72442 150.14509 21945 ft 408 kts 262°
2026-04-25 02:50 -33.72741 150.11104 22332 ft 411 kts 262°
2026-04-25 02:50 -33.73031 150.07685 22712 ft 414 kts 262°
2026-04-25 02:50 -33.73323 150.04227 23101 ft 416 kts 262°
2026-04-25 02:50 -33.73620 150.00758 23465 ft 419 kts 262°
2026-04-25 02:51 -33.73922 149.97269 23818 ft 422 kts 262°
2026-04-25 02:51 -33.74225 149.93750 24159 ft 424 kts 262°
2026-04-25 02:51 -33.74525 149.90218 24507 ft 426 kts 262°
2026-04-25 02:51 -33.74826 149.86666 24850 ft 429 kts 262°
2026-04-25 02:52 -33.75127 149.83093 25188 ft 431 kts 262°
2026-04-25 02:52 -33.75430 149.79499 25519 ft 433 kts 262°
2026-04-25 02:52 -33.75735 149.75886 25847 ft 435 kts 262°
2026-04-25 02:52 -33.76039 149.72267 26158 ft 437 kts 262°
2026-04-25 02:53 -33.76343 149.68618 26483 ft 439 kts 262°
2026-04-25 02:53 -33.76644 149.64959 26785 ft 441 kts 262°
2026-04-25 02:53 -33.76947 149.61285 27074 ft 443 kts 262°
2026-04-25 02:53 -33.77253 149.57593 27346 ft 444 kts 262°
2026-04-25 02:54 -33.77556 149.53892 27622 ft 447 kts 262°
2026-04-25 02:54 -33.77860 149.50170 27921 ft 448 kts 262°
2026-04-25 02:54 -33.78164 149.46436 28191 ft 450 kts 261°
2026-04-25 02:54 -33.78469 149.42685 28452 ft 452 kts 261°
2026-04-25 02:55 -33.78774 149.38921 28724 ft 453 kts 261°
2026-04-25 02:55 -33.79077 149.35150 28993 ft 455 kts 262°
2026-04-25 02:55 -33.79381 149.31353 29261 ft 456 kts 261°
2026-04-25 02:55 -33.79684 149.27557 29518 ft 457 kts 261°
2026-04-25 02:56 -33.79989 149.23739 29761 ft 459 kts 261°
2026-04-25 02:56 -33.80294 149.19922 29986 ft 460 kts 261°
2026-04-25 02:56 -33.80597 149.16089 30215 ft 461 kts 261°
2026-04-25 02:56 -33.80899 149.12239 30443 ft 463 kts 262°
2026-04-25 02:57 -33.81202 149.08382 30661 ft 464 kts 261°
2026-04-25 02:57 -33.81503 149.04517 30889 ft 465 kts 262°
2026-04-25 02:57 -33.81801 149.00649 31175 ft 465 kts 262°
2026-04-25 02:57 -33.82099 148.96774 31484 ft 464 kts 262°
2026-04-25 02:58 -33.82395 148.92966 31799 ft 463 kts 262°
2026-04-25 02:58 -33.82696 148.89073 32133 ft 461 kts 262°
2026-04-25 02:58 -33.82986 148.85285 32412 ft 460 kts 262°
2026-04-25 02:58 -33.83279 148.81411 32711 ft 458 kts 262°
2026-04-25 02:59 -33.83564 148.77653 33010 ft 457 kts 262°
2026-04-25 02:59 -33.83850 148.73847 33315 ft 455 kts 262°
2026-04-25 02:59 -33.84137 148.70010 33617 ft 454 kts 262°
2026-04-25 02:59 -33.84421 148.66289 33894 ft 452 kts 260°
2026-04-25 03:00 -33.84955 148.62581 34161 ft 449 kts 256°
2026-04-25 03:00 -33.85558 148.58899 34441 ft 448 kts 256°
2026-04-25 03:00 -33.86167 148.55237 34713 ft 446 kts 256°
2026-04-25 03:00 -33.86783 148.51573 34977 ft 446 kts 256°
2026-04-25 03:01 -33.87395 148.47928 35243 ft 445 kts 256°
2026-04-25 03:01 -33.88002 148.44283 35491 ft 444 kts 256°
2026-04-25 03:01 -33.88602 148.40648 35752 ft 443 kts 256°
2026-04-25 03:01 -33.89200 148.37015 36005 ft 442 kts 256°
2026-04-25 03:02 -33.89794 148.33391 36235 ft 441 kts 256°
2026-04-25 03:02 -33.90389 148.29775 36420 ft 441 kts 256°
2026-04-25 03:02 -33.90991 148.26133 36430 ft 445 kts 256°
2026-04-25 03:03 -33.92194 148.18797 36431 ft 448 kts 256°
2026-04-25 03:03 -33.93397 148.11418 36425 ft 445 kts 256°
2026-04-25 03:04 -33.94562 148.04228 36425 ft 432 kts 256°
2026-04-25 03:04 -33.95712 147.97145 36427 ft 431 kts 256°
2026-04-25 03:05 -33.97429 147.86493 36420 ft 433 kts 256°
2026-04-25 03:05 -33.98563 147.79423 36420 ft 432 kts 256°
2026-04-25 03:06 -33.99707 147.72263 36416 ft 432 kts 256°
2026-04-25 03:06 -34.00839 147.65154 36418 ft 432 kts 256°
2026-04-25 03:07 -34.01959 147.58088 36417 ft 432 kts 256°
2026-04-25 03:07 -34.03083 147.50974 36421 ft 432 kts 256°
2026-04-25 03:08 -34.04201 147.43863 36416 ft 431 kts 257°
2026-04-25 03:08 -34.05313 147.36764 36418 ft 431 kts 257°
2026-04-25 03:09 -34.06422 147.29658 36421 ft 431 kts 257°
2026-04-25 03:09 -34.07526 147.22559 36413 ft 430 kts 257°
2026-04-25 03:10 -34.08626 147.15463 36418 ft 431 kts 257°
2026-04-25 03:10 -34.09720 147.08361 36416 ft 430 kts 257°
2026-04-25 03:11 -34.10813 147.01268 36419 ft 429 kts 257°
2026-04-25 03:11 -34.11893 146.94183 36418 ft 429 kts 257°
2026-04-25 03:12 -34.12972 146.87096 36415 ft 429 kts 257°
2026-04-25 03:12 -34.14051 146.80016 36408 ft 429 kts 257°
2026-04-25 03:13 -34.15121 146.72931 36411 ft 429 kts 257°
2026-04-25 03:13 -34.16186 146.65847 36396 ft 429 kts 257°
2026-04-25 03:14 -34.17248 146.58771 36402 ft 427 kts 257°
2026-04-25 03:14 -34.18300 146.51712 36399 ft 427 kts 257°
2026-04-25 03:15 -34.19346 146.44690 36396 ft 428 kts 257°
2026-04-25 03:15 -34.20392 146.37621 36400 ft 427 kts 257°
2026-04-25 03:16 -34.21436 146.30552 36401 ft 427 kts 258°
2026-04-25 03:16 -34.22476 146.23471 36396 ft 428 kts 257°
2026-04-25 03:17 -34.23512 146.16393 36398 ft 427 kts 257°
2026-04-25 03:17 -34.24372 146.10463 36402 ft 428 kts 258°
2026-04-25 03:18 -34.25371 146.03428 36400 ft 428 kts 259°
2026-04-25 03:18 -34.26227 145.96304 36401 ft 428 kts 259°
2026-04-25 03:19 -34.27082 145.89181 36391 ft 427 kts 259°
2026-04-25 03:19 -34.27975 145.82078 36394 ft 428 kts 259°
2026-04-25 03:20 -34.28842 145.74964 36393 ft 427 kts 259°
2026-04-25 03:20 -34.29703 145.67854 36391 ft 427 kts 259°
2026-04-25 03:21 -34.30570 145.60736 36391 ft 428 kts 259°
2026-04-25 03:21 -34.31427 145.53614 36393 ft 427 kts 259°
2026-04-25 03:22 -34.32277 145.46504 36388 ft 427 kts 259°
2026-04-25 03:22 -34.33126 145.39398 36389 ft 427 kts 259°
2026-04-25 03:23 -34.33969 145.32292 36387 ft 426 kts 260°
2026-04-25 03:23 -34.34806 145.25198 36391 ft 426 kts 260°
2026-04-25 03:24 -34.35642 145.18100 36389 ft 426 kts 260°
2026-04-25 03:24 -34.36470 145.11002 36384 ft 426 kts 260°
2026-04-25 03:25 -34.37297 145.03895 36381 ft 426 kts 260°
2026-04-25 03:25 -34.38113 144.96838 36379 ft 426 kts 260°
2026-04-25 03:26 -34.38931 144.89741 36378 ft 426 kts 261°
2026-04-25 03:26 -34.39742 144.82637 36379 ft 426 kts 261°
2026-04-25 03:27 -34.40552 144.75535 36374 ft 426 kts 261°
2026-04-25 03:27 -34.41357 144.68443 36355 ft 425 kts 261°
2026-04-25 03:28 -34.42155 144.61351 36346 ft 425 kts 261°
2026-04-25 03:28 -34.42949 144.54258 36342 ft 425 kts 261°
2026-04-25 03:29 -34.43740 144.47166 36344 ft 425 kts 261°
2026-04-25 03:29 -34.44530 144.40066 36333 ft 425 kts 261°
2026-04-25 03:30 -34.45309 144.32971 36329 ft 425 kts 261°
2026-04-25 03:30 -34.46092 144.25873 36326 ft 425 kts 261°
2026-04-25 03:31 -34.46864 144.18776 36316 ft 425 kts 261°
2026-04-25 03:31 -34.47630 144.11683 36323 ft 425 kts 261°
2026-04-25 03:32 -34.48401 144.04576 36310 ft 425 kts 261°
2026-04-25 03:32 -34.49162 143.97478 36314 ft 425 kts 262°
2026-04-25 03:33 -34.49918 143.90383 36317 ft 424 kts 262°
2026-04-25 03:33 -34.50670 143.83304 36315 ft 423 kts 262°
2026-04-25 03:34 -34.51410 143.76285 36321 ft 423 kts 262°
2026-04-25 03:34 -34.52154 143.69201 36305 ft 423 kts 262°
2026-04-25 03:35 -34.52890 143.62123 36302 ft 423 kts 262°
2026-04-25 03:35 -34.53626 143.55037 36302 ft 424 kts 262°
2026-04-25 03:36 -34.54358 143.47947 36306 ft 424 kts 262°
2026-04-25 03:36 -34.55085 143.40861 36300 ft 422 kts 262°
2026-04-25 03:37 -34.55805 143.33797 36305 ft 422 kts 262°
2026-04-25 03:37 -34.56521 143.26724 36300 ft 422 kts 262°
2026-04-25 03:38 -34.57235 143.19651 36299 ft 422 kts 262°
2026-04-25 03:38 -34.57943 143.12588 36299 ft 421 kts 263°
2026-04-25 03:39 -34.58644 143.05541 36299 ft 420 kts 263°
2026-04-25 03:39 -34.59342 142.98490 36299 ft 421 kts 263°
2026-04-25 03:40 -34.60037 142.91443 36296 ft 420 kts 263°
2026-04-25 03:40 -34.60717 142.84464 36294 ft 420 kts 263°
2026-04-25 03:41 -34.61400 142.77430 36291 ft 420 kts 263°
2026-04-25 03:41 -34.62079 142.70399 36293 ft 419 kts 263°
2026-04-25 03:42 -34.62754 142.63384 36283 ft 418 kts 263°
2026-04-25 03:42 -34.63422 142.56370 36281 ft 419 kts 263°
2026-04-25 03:43 -34.63927 142.49340 36273 ft 416 kts 266°
2026-04-25 03:43 -34.64237 142.42354 36271 ft 411 kts 266°
2026-04-25 03:44 -34.64641 142.35448 36272 ft 410 kts 265°
2026-04-25 03:44 -34.65048 142.28533 36273 ft 411 kts 266°
2026-04-25 03:45 -34.65420 142.21602 36272 ft 411 kts 266°
2026-04-25 03:45 -34.65801 142.14673 36267 ft 411 kts 265°
2026-04-25 03:46 -34.66181 142.07732 36264 ft 411 kts 266°
2026-04-25 03:46 -34.66553 142.00802 36262 ft 411 kts 265°
2026-04-25 03:47 -34.66924 141.93925 36259 ft 409 kts 266°
2026-04-25 03:47 -34.67288 141.87054 36262 ft 407 kts 265°
2026-04-25 03:48 -34.67642 141.80175 36255 ft 408 kts 266°
2026-04-25 03:48 -34.67996 141.73284 36254 ft 408 kts 266°
2026-04-25 03:49 -34.68348 141.66404 36250 ft 408 kts 266°
2026-04-25 03:49 -34.68698 141.59524 36252 ft 408 kts 266°
2026-04-25 03:50 -34.69035 141.52636 36254 ft 409 kts 266°
2026-04-25 03:50 -34.69377 141.45745 36246 ft 409 kts 266°
2026-04-25 03:51 -34.69711 141.38857 36244 ft 408 kts 266°
2026-04-25 03:51 -34.70041 141.31978 36244 ft 407 kts 266°
2026-04-25 03:52 -34.70370 141.25109 36244 ft 408 kts 266°
2026-04-25 03:52 -34.70692 141.18239 36244 ft 407 kts 266°
2026-04-25 03:53 -34.71007 141.11423 36230 ft 407 kts 266°
2026-04-25 03:53 -34.71323 141.04560 36227 ft 406 kts 266°
2026-04-25 03:54 -34.71633 140.97716 36227 ft 405 kts 266°
2026-04-25 03:54 -34.71938 140.90875 36226 ft 405 kts 266°
2026-04-25 03:55 -34.72242 140.84047 36229 ft 405 kts 266°
2026-04-25 03:55 -34.72538 140.77214 36224 ft 404 kts 266°
2026-04-25 03:56 -34.72831 140.70397 36224 ft 404 kts 266°
2026-04-25 03:56 -34.73121 140.63583 36215 ft 401 kts 267°
2026-04-25 03:57 -34.73354 140.57995 36217 ft 396 kts 267°
2026-04-25 03:57 -34.73679 140.50190 36219 ft 396 kts 266°
2026-04-25 03:58 -34.73951 140.43493 36222 ft 397 kts 267°
2026-04-25 03:58 -34.74220 140.36793 36218 ft 397 kts 267°
2026-04-25 03:59 -34.74486 140.30100 36215 ft 395 kts 267°
2026-04-25 03:59 -34.74745 140.23475 36214 ft 395 kts 266°
2026-04-25 04:00 -34.75004 140.16772 36214 ft 394 kts 267°
2026-04-25 04:00 -34.75257 140.10140 36211 ft 395 kts 267°
2026-04-25 04:01 -34.75506 140.03465 36211 ft 395 kts 267°
2026-04-25 04:01 -34.75753 139.96791 36212 ft 394 kts 267°
2026-04-25 04:02 -34.75994 139.90174 36208 ft 389 kts 267°
2026-04-25 04:02 -34.76227 139.83621 36208 ft 388 kts 267°